Home > Weather > Fray Bentos > Past weeks

Flag for Uruguay Weather for the Past 2 Weeks in Fray Bentos, Uruguay

Now
82 °F

Clear.


Feels Like: 86 °F
Forecast: 77 / 94 °F
Wind: 8 mph from East

Location: San Fernando - BA

Current Time: Feb 6, 2016 at 1:11:58 AM

Latest Report: Feb 6, 2016 at 12:00 AM


Visibility: 10 mi

Pressure: 29.98 "Hg

Humidity: 66%

Dew point: 70 °F

Location of Fray BentosLocation

Historic Weather in Fray Bentos — Graph

°F

Fray Bentos Temperature Yesterday

Maximum temperature yesterday: 91 °F (at 1:00 PM)
Minimum temperature yesterday: 72 °F (at 6:00 AM)
Average temperature yesterday: 82 °F

High & Low Weather Summary for the Past Weeks

 TemperatureHumidityPressure
High99 °F (Jan 24, 4:00 PM)100% (Jan 26, 3:00 AM)30.18 "Hg (Jan 26, 3:00 AM)
Low39 °F (Jan 26, 3:00 AM)28% (Jan 26, 7:00 PM)29.47 "Hg (Jan 24, 6:00 PM)
Average77 °F63%29.91 "Hg
* Reported Midnight between Jan 21 and Jan 22 — Midnight between Feb 5 and Feb 6, Fray Bentos, Weather by CustomWeather, © 2016

Note: Actual official high and low records may vary slightly from our data, if they occured in-between our weather recording intervals... More about our weather records

Advertising

Fray Bentos Weather History for the Previous 24 Hours

 ConditionsComfort  
Time TempWeatherWind HumidityBarometerVisibility
12:00 AM
Sat, Feb 6
82 °FClear.8 mph66%29.98 "Hg10 mi
11:00 PM
Fri, Feb 5
81 °FClear.9 mph70%29.98 "Hg10 mi
10:00 PM81 °FClear.9 mph70%29.98 "Hg10 mi
9:00 PM81 °FClear.10 mph74%29.95 "Hg10 mi
8:00 PM81 °FPartly cloudy.10 mph74%29.95 "HgN/A
7:00 PM82 °FBroken clouds.13 mph74%29.92 "HgN/A
6:00 PM84 °FSunny.12 mph66%29.92 "Hg10 mi
5:00 PM86 °FPartly sunny.12 mph52%29.92 "HgN/A
4:00 PM90 °FPartly sunny.9 mph43%29.92 "HgN/A
3:00 PM91 °FPartly sunny.9 mph38%29.92 "HgN/A
2:00 PM91 °FPartly sunny.8 mph46%29.95 "HgN/A
1:00 PM91 °FPartly sunny.7 mph44%29.95 "HgN/A
12:00 PM90 °FScattered clouds.5 mph46%29.95 "HgN/A
11:00 AM88 °FSunny.2 mph46%29.95 "Hg10 mi
10:00 AM84 °FSunny.2 mph55%29.95 "Hg10 mi
9:00 AM81 °FSunny.No wind62%29.95 "Hg10 mi
8:00 AM77 °FSunny.3 mph74%29.92 "Hg10 mi
7:00 AM73 °FSunny.3 mph83%29.92 "Hg10 mi
6:00 AM72 °FClear.2 mph88%29.89 "Hg10 mi
5:00 AM75 °FClear.3 mph83%29.89 "Hg10 mi
4:00 AM79 °FClear.5 mph74%29.89 "Hg10 mi
3:00 AM79 °FClear.6 mph70%29.89 "Hg10 mi
2:00 AM79 °FClear.6 mph70%29.89 "Hg10 mi
1:00 AM79 °FClear.6 mph70%29.89 "Hg10 mi
Weather by CustomWeather, © 2016

See weather overviewHow to use our weather pages